Location: Spring Creek
(38.2870°N, 100.2160°W)
Time: 02:07:42
(UTC+00:00)

Meteor 2-15 - Pass Details

Date: 28 September 2021
Orbit: 937 x 954 km, 82.5° (Epoch: 23 October)

Event Time Altitude Azimuth Distance (km) Brightness Sun altitude
Exits shadow 10:07:46 25° 332° (NNW) 1,811 5.8 -28.9°
Drops below altitude 10° 10:10:35 10° 351° (N) 2,675 6.9 -28.4°
Sets 10:13:18 0° 360° (N) 3,626 7.7 -27.9°
